Time,TemperatureF,DewpointF,PressureIn,WindDirection,WindDirectionDegrees,WindSpeedMPH,WindSpeedGustMPH,Humidity,HourlyPrecipIn,Conditions,Clouds,dailyrainin,SoftwareType,DateUTC
2013-03-17 00:00:00,51.1,48.2,29.99,WNW,292,2.7,4.8,90,0.00,,,0.00,VWS V14.01,2013-03-17 07:00:00,
2013-03-17 00:10:00,51.1,48.2,29.99,WNW,287,3.8,3.8,90,0.00,,,0.00,VWS V14.01,2013-03-17 07:10:00,
2013-03-17 00:20:00,50.9,48.1,29.99,WNW,282,0.0,3.8,90,0.00,,,0.00,VWS V14.01,2013-03-17 07:20:00,
2013-03-17 00:30:00,50.7,47.9,29.99,West,262,0.0,0.0,90,0.00,,,0.00,VWS V14.01,2013-03-17 07:30:00,
2013-03-17 00:40:00,50.7,48.2,29.99,WSW,254,3.2,4.8,91,0.00,,,0.00,VWS V14.01,2013-03-17 07:40:00,
2013-03-17 00:50:00,51.3,49.0,29.99,SW,223,2.7,4.8,92,0.00,,,0.00,VWS V14.01,2013-03-17 07:50:00,
2013-03-17 01:00:00,51.6,49.7,29.99,South,181,4.3,4.8,93,0.00,,,0.00,VWS V14.01,2013-03-17 08:00:00,
2013-03-17 01:10:00,52.0,50.3,29.99,South,175,3.2,4.8,94,0.00,,,0.00,VWS V14.01,2013-03-17 08:10:00,
2013-03-17 01:20:00,52.2,50.5,29.99,South,170,0.0,6.4,94,0.00,,,0.00,VWS V14.01,2013-03-17 08:20:00,
2013-03-17 01:30:00,52.2,50.8,29.99,SSE,155,3.2,4.8,95,0.00,,,0.00,VWS V14.01,2013-03-17 08:30:00,
2013-03-17 01:40:00,52.2,50.8,29.99,South,184,4.3,4.8,95,0.00,,,0.00,VWS V14.01,2013-03-17 08:40:00,
2013-03-17 01:50:00,52.3,51.0,29.99,SSE,166,0.0,4.3,95,0.00,,,0.00,VWS V14.01,2013-03-17 08:50:00,
2013-03-17 02:00:00,52.3,51.2,29.99,SSE,165,0.0,0.0,96,0.00,,,0.00,VWS V14.01,2013-03-17 09:00:00,
2013-03-17 02:10:00,52.3,51.2,29.99,SSW,201,0.0,0.0,96,0.00,,,0.00,VWS V14.01,2013-03-17 09:10:00,
2013-03-17 02:20:00,52.3,51.2,29.99,NW,311,0.0,3.8,96,0.00,,,0.00,VWS V14.01,2013-03-17 09:20:00,
2013-03-17 02:30:00,52.3,51.2,29.99,NW,311,0.0,2.7,96,0.00,,,0.00,VWS V14.01,2013-03-17 09:30:00,
2013-03-17 02:40:00,52.3,51.2,29.99,NW,311,0.0,0.0,96,0.00,,,0.00,VWS V14.01,2013-03-17 09:40:00,
2013-03-17 02:50:00,52.2,51.1,29.99,North,0,3.8,4.8,96,0.00,,,0.00,VWS V14.01,2013-03-17 09:50:00,
2013-03-17 03:00:00,51.6,50.5,29.99,North,356,0.0,4.8,96,0.00,,,0.00,VWS V14.01,2013-03-17 10:00:00,
2013-03-17 03:10:00,51.6,50.5,29.99,North,356,2.7,4.3,96,0.00,,,0.00,VWS V14.01,2013-03-17 10:10:00,
2013-03-17 03:20:00,51.3,50.2,29.99,NNW,337,2.7,3.8,96,0.00,,,0.00,VWS V14.01,2013-03-17 10:20:00,
2013-03-17 03:30:00,51.1,50.0,29.99,North,356,4.3,5.9,96,0.00,,,0.00,VWS V14.01,2013-03-17 10:30:00,
2013-03-17 03:40:00,50.9,49.8,29.99,North,356,0.0,4.8,96,0.00,,,0.00,VWS V14.01,2013-03-17 10:40:00,
2013-03-17 03:50:00,50.5,49.5,29.99,NE,34,0.0,4.8,96,0.00,,,0.00,VWS V14.01,2013-03-17 10:50:00,
2013-03-17 04:00:00,50.2,49.1,29.99,NNE,29,0.0,3.8,96,0.00,,,0.00,VWS V14.01,2013-03-17 11:00:00,
2013-03-17 04:10:00,50.0,48.9,29.99,North,6,0.0,4.8,96,0.00,,,0.00,VWS V14.01,2013-03-17 11:10:00,
2013-03-17 04:20:00,49.8,48.7,29.99,NE,52,0.0,4.8,96,0.00,,,0.00,VWS V14.01,2013-03-17 11:20:00,
2013-03-17 04:30:00,50.0,48.9,29.96,ENE,76,4.3,4.8,96,0.00,,,0.00,VWS V14.01,2013-03-17 11:30:00,
2013-03-17 04:40:00,50.0,48.9,29.99,NNE,23,4.3,4.8,96,0.00,,,0.00,VWS V14.01,2013-03-17 11:40:00,
2013-03-17 04:50:00,49.8,49.0,29.99,NNE,31,5.9,6.4,97,0.00,,,0.00,VWS V14.01,2013-03-17 11:50:00,
2013-03-17 05:00:00,49.6,48.8,29.99,ENE,67,3.2,5.9,97,0.00,,,0.00,VWS V14.01,2013-03-17 12:00:00,
2013-03-17 05:10:00,49.6,48.8,29.99,NNE,30,2.7,4.3,97,0.00,,,0.00,VWS V14.01,2013-03-17 12:10:00,
2013-03-17 05:20:00,49.6,48.8,29.99,NNE,19,0.0,3.8,97,0.00,,,0.00,VWS V14.01,2013-03-17 12:20:00,
2013-03-17 05:30:00,49.6,48.8,29.99,NNE,23,0.0,3.8,97,0.00,,,0.00,VWS V14.01,2013-03-17 12:30:00,
2013-03-17 05:40:00,49.6,48.8,29.99,NNE,32,0.0,4.8,97,0.00,,,0.00,VWS V14.01,2013-03-17 12:40:00,
2013-03-17 05:50:00,49.6,48.8,29.99,NE,37,2.7,3.8,97,0.00,,,0.00,VWS V14.01,2013-03-17 12:50:00,
2013-03-17 06:00:00,49.5,48.9,30.02,ENE,69,3.8,6.4,98,0.00,,,0.00,VWS V14.01,2013-03-17 13:00:00,
2013-03-17 06:10:00,49.3,48.7,30.02,NE,36,0.0,4.3,98,0.00,,,0.00,VWS V14.01,2013-03-17 13:10:00,
2013-03-17 06:20:00,49.3,48.7,30.02,NE,36,3.2,3.2,98,0.00,,,0.00,VWS V14.01,2013-03-17 13:20:00,
2013-03-17 06:30:00,49.1,48.6,30.02,NE,55,0.0,3.2,98,0.00,,,0.00,VWS V14.01,2013-03-17 13:30:00,
2013-03-17 06:40:00,48.9,48.4,30.02,NE,55,0.0,0.0,98,0.00,,,0.00,VWS V14.01,2013-03-17 13:40:00,
2013-03-17 06:50:00,48.9,48.4,30.02,ENE,73,0.0,0.0,98,0.00,,,0.00,VWS V14.01,2013-03-17 13:50:00,
2013-03-17 07:00:00,48.9,48.4,30.02,South,189,0.0,3.2,98,0.00,,,0.00,VWS V14.01,2013-03-17 14:00:00,
2013-03-17 07:10:00,48.9,48.4,30.02,South,189,0.0,0.0,98,0.00,,,0.00,VWS V14.01,2013-03-17 14:10:00,
2013-03-17 07:20:00,48.9,48.4,30.02,SW,233,0.0,3.2,98,0.00,,,0.00,VWS V14.01,2013-03-17 14:20:00,
2013-03-17 07:30:00,49.3,48.7,30.02,SSW,206,0.0,3.8,98,0.00,,,0.00,VWS V14.01,2013-03-17 14:30:00,
2013-03-17 07:40:00,49.6,49.1,30.02,SSE,154,0.0,3.2,98,0.00,,,0.00,VWS V14.01,2013-03-17 14:40:00,
2013-03-17 07:50:00,49.8,49.3,30.02,ESE,116,0.0,3.8,98,0.00,,,0.00,VWS V14.01,2013-03-17 14:50:00,
2013-03-17 08:00:00,50.0,49.5,30.02,SSE,165,2.7,4.8,98,0.00,,,0.00,VWS V14.01,2013-03-17 15:00:00,
2013-03-17 08:10:00,50.2,49.6,30.02,ESE,104,0.0,4.3,98,0.00,,,0.00,VWS V14.01,2013-03-17 15:10:00,
2013-03-17 08:20:00,50.4,49.8,30.02,ESE,112,0.0,4.3,98,0.00,,,0.00,VWS V14.01,2013-03-17 15:20:00,
2013-03-17 08:30:00,50.4,49.8,30.02,ESE,103,3.2,4.3,98,0.00,,,0.00,VWS V14.01,2013-03-17 15:30:00,
2013-03-17 08:40:00,50.4,49.8,30.02,East,93,0.0,4.3,98,0.00,,,0.00,VWS V14.01,2013-03-17 15:40:00,
2013-03-17 08:50:00,50.5,50.0,30.02,East,85,0.0,3.2,98,0.00,,,0.00,VWS V14.01,2013-03-17 15:50:00,
2013-03-17 09:00:00,50.5,50.0,30.05,South,188,0.0,3.8,98,0.00,,,0.00,VWS V14.01,2013-03-17 16:00:00,
2013-03-17 09:10:00,50.7,50.2,30.05,South,173,0.0,4.3,98,0.00,,,0.00,VWS V14.01,2013-03-17 16:10:00,
2013-03-17 09:20:00,50.9,50.4,30.05,SW,234,3.2,4.3,98,0.00,,,0.00,VWS V14.01,2013-03-17 16:20:00,
2013-03-17 09:30:00,51.1,50.5,30.05,WNW,291,0.0,4.3,98,0.00,,,0.00,VWS V14.01,2013-03-17 16:30:00,
2013-03-17 09:40:00,51.4,50.9,30.05,South,175,0.0,3.8,98,0.00,,,0.00,VWS V14.01,2013-03-17 16:40:00,
2013-03-17 09:50:00,51.6,51.1,30.05,West,279,3.2,4.8,98,0.00,,,0.00,VWS V14.01,2013-03-17 16:50:00,
2013-03-17 10:00:00,51.8,51.3,30.05,SW,230,0.0,3.8,98,0.00,,,0.00,VWS V14.01,2013-03-17 17:00:00,
2013-03-17 10:10:00,52.2,51.6,30.05,SSE,154,3.2,4.3,98,0.00,,,0.00,VWS V14.01,2013-03-17 17:10:00,
2013-03-17 10:20:00,52.5,52.0,30.05,South,180,6.4,6.4,98,0.00,,,0.00,VWS V14.01,2013-03-17 17:20:00,
2013-03-17 10:30:00,52.5,52.0,30.05,SSE,152,3.2,6.4,98,0.00,,,0.00,VWS V14.01,2013-03-17 17:30:00,
2013-03-17 10:40:00,53.1,52.5,30.05,SW,217,0.0,7.5,98,0.00,,,0.00,VWS V14.01,2013-03-17 17:40:00,
2013-03-17 10:50:00,53.4,52.9,30.05,South,177,0.0,3.2,98,0.00,,,0.00,VWS V14.01,2013-03-17 17:50:00,
2013-03-17 11:00:00,53.8,53.2,30.05,South,191,3.8,4.8,98,0.00,,,0.00,VWS V14.01,2013-03-17 18:00:00,
2013-03-17 11:10:00,54.1,53.6,30.05,South,174,0.0,4.8,98,0.00,,,0.00,VWS V14.01,2013-03-17 18:10:00,
2013-03-17 11:20:00,54.9,54.0,30.05,West,267,0.0,6.4,97,0.00,,,0.00,VWS V14.01,2013-03-17 18:20:00,
2013-03-17 11:30:00,55.8,54.3,30.05,SSW,211,7.5,7.5,95,0.00,,,0.00,VWS V14.01,2013-03-17 18:30:00,
2013-03-17 11:40:00,56.8,54.8,30.05,SSE,168,4.3,7.5,93,0.00,,,0.00,VWS V14.01,2013-03-17 18:40:00,
2013-03-17 11:50:00,58.1,54.9,30.05,SW,230,0.0,7.5,89,0.00,,,0.00,VWS V14.01,2013-03-17 18:50:00,
2013-03-17 12:00:00,59.4,54.2,30.05,South,186,3.8,5.9,83,0.00,,,0.00,VWS V14.01,2013-03-17 19:00:00,
2013-03-17 12:10:00,60.8,54.3,30.05,SSE,162,6.4,8.1,79,0.00,,,0.00,VWS V14.01,2013-03-17 19:10:00,
2013-03-17 12:20:00,62.2,54.2,30.05,West,273,3.8,8.6,75,0.00,,,0.00,VWS V14.01,2013-03-17 19:20:00,
2013-03-17 12:30:00,63.3,54.5,30.05,South,170,0.0,7.5,73,0.00,,,0.00,VWS V14.01,2013-03-17 19:30:00,
2013-03-17 12:40:00,64.2,54.2,30.02,SSE,165,9.9,9.9,70,0.00,,,0.00,VWS V14.01,2013-03-17 19:40:00,
2013-03-17 12:50:00,64.6,53.8,30.02,West,260,2.7,9.9,68,0.00,,,0.00,VWS V14.01,2013-03-17 19:50:00,
2013-03-17 13:00:00,64.8,53.6,30.02,South,188,5.9,9.1,67,0.00,,,0.00,VWS V14.01,2013-03-17 20:00:00,
2013-03-17 13:10:00,65.1,53.1,30.02,WSW,250,5.9,8.6,65,0.00,,,0.00,VWS V14.01,2013-03-17 20:10:00,
2013-03-17 13:20:00,65.5,53.4,30.02,SSW,202,6.4,9.7,65,0.00,,,0.00,VWS V14.01,2013-03-17 20:20:00,
2013-03-17 13:30:00,65.7,53.2,30.02,SSW,198,6.4,8.6,64,0.00,,,0.00,VWS V14.01,2013-03-17 20:30:00,
2013-03-17 13:40:00,65.5,52.1,30.02,SSW,200,7.5,10.5,62,0.00,,FEW010,0.00,VWS V14.01,2013-03-17 20:40:00,
2013-03-17 13:50:00,66.2,53.2,30.02,SW,223,4.3,8.6,63,0.00,,FEW010,0.00,VWS V14.01,2013-03-17 20:50:00,
2013-03-17 14:00:00,66.9,53.0,30.02,South,190,3.2,9.7,61,0.00,,FEW010,0.00,VWS V14.01,2013-03-17 21:00:00,
2013-03-17 14:10:00,67.1,53.2,29.99,WSW,248,4.3,8.1,61,0.00,,FEW010,0.00,VWS V14.01,2013-03-17 21:10:00,
2013-03-17 14:20:00,67.8,53.4,29.99,South,177,3.2,7.5,60,0.00,,FEW010,0.00,VWS V14.01,2013-03-17 21:20:00,
2013-03-17 14:30:00,68.5,53.2,29.99,SW,227,2.7,7.5,58,0.00,,FEW010,0.00,VWS V14.01,2013-03-17 21:30:00,
2013-03-17 14:40:00,68.9,52.6,29.99,SSW,203,7.0,10.5,56,0.00,,CLR,0.00,VWS V14.01,2013-03-17 21:40:00,
2013-03-17 14:50:00,69.1,52.2,29.99,SSW,200,6.4,7.5,55,0.00,,CLR,0.00,VWS V14.01,2013-03-17 21:50:00,
2013-03-17 15:00:00,69.6,52.3,29.99,South,182,3.8,9.1,54,0.00,,CLR,0.00,VWS V14.01,2013-03-17 22:00:00,
2013-03-17 15:10:00,69.6,51.2,29.99,South,188,3.2,9.7,52,0.00,,CLR,0.00,VWS V14.01,2013-03-17 22:10:00,
2013-03-17 15:20:00,69.4,51.1,29.99,West,265,4.3,9.7,52,0.00,,CLR,0.00,VWS V14.01,2013-03-17 22:20:00,
2013-03-17 15:30:00,69.1,51.2,29.99,SSE,165,4.8,9.7,53,0.00,,CLR,0.00,VWS V14.01,2013-03-17 22:30:00,
2013-03-17 15:40:00,68.5,51.2,29.99,South,176,5.9,10.5,54,0.00,,CLR,0.00,VWS V14.01,2013-03-17 22:40:00,
2013-03-17 15:50:00,67.8,50.6,29.99,WSW,245,3.8,9.7,54,0.00,,CLR,0.00,VWS V14.01,2013-03-17 22:50:00,
2013-03-17 16:00:00,67.6,50.4,29.99,South,175,7.5,10.5,54,0.00,,CLR,0.00,VWS V14.01,2013-03-17 23:00:00,
2013-03-17 16:10:00,67.1,50.4,29.96,SSW,212,7.5,10.5,55,0.00,,CLR,0.00,VWS V14.01,2013-03-17 23:10:00,
2013-03-17 16:20:00,66.9,50.2,29.99,SSE,160,4.8,9.7,55,0.00,,CLR,0.00,VWS V14.01,2013-03-17 23:20:00,
2013-03-17 16:30:00,66.7,50.6,29.99,SSW,206,5.4,10.5,56,0.00,,CLR,0.00,VWS V14.01,2013-03-17 23:30:00,
2013-03-17 16:40:00,66.6,50.9,29.99,SSW,201,4.3,9.7,57,0.00,,CLR,0.00,VWS V14.01,2013-03-17 23:40:00,
2013-03-17 16:50:00,66.4,50.7,29.99,WSW,239,4.8,9.7,57,0.00,,CLR,0.00,VWS V14.01,2013-03-17 23:50:00,
2013-03-17 17:00:00,66.7,51.5,29.99,SW,234,7.5,8.1,58,0.00,,CLR,0.00,VWS V14.01,2013-03-18 00:00:00,
2013-03-17 17:10:00,66.0,51.8,29.96,South,185,4.3,9.1,60,0.00,,CLR,0.00,VWS V14.01,2013-03-18 00:10:00,
2013-03-17 17:20:00,65.8,52.0,29.96,South,171,5.9,7.5,61,0.00,,BKN012,0.00,VWS V14.01,2013-03-18 00:20:00,
2013-03-17 17:30:00,66.0,52.2,29.96,South,188,2.7,7.0,61,0.00,,BKN012,0.00,VWS V14.01,2013-03-18 00:30:00,
2013-03-17 17:40:00,65.7,52.3,29.99,South,181,3.8,9.7,62,0.00,,BKN012,0.00,VWS V14.01,2013-03-18 00:40:00,
2013-03-17 17:50:00,64.8,51.5,29.99,South,172,5.9,7.5,62,0.00,,BKN012,0.00,VWS V14.01,2013-03-18 00:50:00,
2013-03-17 18:00:00,64.0,51.6,29.99,South,171,3.2,7.5,64,0.00,,BKN012,0.00,VWS V14.01,2013-03-18 01:00:00,
2013-03-17 18:10:00,63.0,51.0,29.99,SSE,162,4.8,7.5,65,0.00,,BKN012,0.00,VWS V14.01,2013-03-18 01:10:00,
2013-03-17 18:20:00,61.7,50.6,29.99,SSE,167,3.8,7.5,67,0.00,,BKN012,0.00,VWS V14.01,2013-03-18 01:20:00,
2013-03-17 18:30:00,61.0,50.8,29.99,SSE,154,3.8,7.0,69,0.00,,BKN012,0.00,VWS V14.01,2013-03-18 01:30:00,
2013-03-17 18:40:00,60.1,50.7,29.99,SSW,193,2.7,4.8,71,0.00,,SCT012,0.00,VWS V14.01,2013-03-18 01:40:00,
2013-03-17 18:50:00,59.7,50.7,29.99,SSW,200,3.2,6.4,72,0.00,,SCT012,0.00,VWS V14.01,2013-03-18 01:50:00,
2013-03-17 19:00:00,59.2,50.2,29.99,South,187,3.2,5.9,72,0.00,,SCT012,0.00,VWS V14.01,2013-03-18 02:00:00,
2013-03-17 19:10:00,58.6,50.4,29.99,South,174,2.7,4.8,74,0.00,,SCT012,0.00,VWS V14.01,2013-03-18 02:10:00,
2013-03-17 19:20:00,58.3,50.4,29.99,SSE,148,0.0,3.8,75,0.00,,SCT012,0.00,VWS V14.01,2013-03-18 02:20:00,
2013-03-17 19:30:00,57.9,50.4,29.99,South,170,0.0,4.3,76,0.00,,SCT012,0.00,VWS V14.01,2013-03-18 02:30:00,
2013-03-17 19:40:00,57.7,50.6,29.99,South,169,0.0,4.8,77,0.00,,CLR,0.00,VWS V14.01,2013-03-18 02:40:00,
2013-03-17 19:50:00,57.4,50.6,29.99,SSE,163,0.0,4.8,78,0.00,,CLR,0.00,VWS V14.01,2013-03-18 02:50:00,
2013-03-17 20:00:00,57.2,50.4,29.99,WSW,240,0.0,4.3,78,0.00,,CLR,0.00,VWS V14.01,2013-03-18 03:00:00,
2013-03-17 20:10:00,57.0,50.9,29.99,SSW,212,0.0,4.3,80,0.00,,CLR,0.00,VWS V14.01,2013-03-18 03:10:00,
2013-03-17 20:20:00,56.8,50.7,29.99,South,178,0.0,3.8,80,0.00,,CLR,0.00,VWS V14.01,2013-03-18 03:20:00,
2013-03-17 20:30:00,56.7,50.6,29.99,WSW,241,0.0,3.8,80,0.00,,CLR,0.00,VWS V14.01,2013-03-18 03:30:00,
2013-03-17 20:40:00,56.5,50.7,29.99,South,185,0.0,3.2,81,0.00,,CLR,0.00,VWS V14.01,2013-03-18 03:40:00,
2013-03-17 20:50:00,56.5,50.7,29.99,South,184,0.0,0.0,81,0.00,,CLR,0.00,VWS V14.01,2013-03-18 03:50:00,
2013-03-17 21:00:00,56.5,50.7,29.99,South,185,0.0,0.0,81,0.00,,CLR,0.00,VWS V14.01,2013-03-18 04:00:00,
2013-03-17 21:10:00,56.5,51.1,29.99,SSW,207,0.0,0.0,82,0.00,,CLR,0.00,VWS V14.01,2013-03-18 04:10:00,
2013-03-17 21:20:00,56.3,50.9,29.99,SSW,207,0.0,0.0,82,0.00,,CLR,0.00,VWS V14.01,2013-03-18 04:20:00,
2013-03-17 21:30:00,56.1,50.7,29.99,West,270,0.0,0.0,82,0.00,,CLR,0.00,VWS V14.01,2013-03-18 04:30:00,
2013-03-17 21:40:00,55.9,50.5,29.99,West,264,0.0,4.3,82,0.00,,CLR,0.00,VWS V14.01,2013-03-18 04:40:00,
2013-03-17 21:50:00,55.8,50.4,30.02,West,268,0.0,3.2,82,0.00,,CLR,0.00,VWS V14.01,2013-03-18 04:50:00,
2013-03-17 22:00:00,55.6,50.2,30.02,West,262,0.0,0.0,82,0.00,,CLR,0.00,VWS V14.01,2013-03-18 05:00:00,
2013-03-17 22:10:00,55.6,50.2,30.02,West,261,0.0,0.0,82,0.00,,CLR,0.00,VWS V14.01,2013-03-18 05:10:00,
2013-03-17 22:20:00,55.0,49.7,30.02,West,261,0.0,0.0,82,0.00,,CLR,0.00,VWS V14.01,2013-03-18 05:20:00,
2013-03-17 22:30:00,54.9,49.5,30.02,West,263,0.0,3.2,82,0.00,,CLR,0.00,VWS V14.01,2013-03-18 05:30:00,
2013-03-17 22:40:00,54.5,49.5,30.02,WNW,286,0.0,3.8,83,0.00,,CLR,0.00,VWS V14.01,2013-03-18 05:40:00,
2013-03-17 22:50:00,54.3,49.3,30.02,WNW,285,0.0,3.2,83,0.00,,CLR,0.00,VWS V14.01,2013-03-18 05:50:00,
2013-03-17 23:00:00,54.1,49.1,30.02,West,269,0.0,2.7,83,0.00,,CLR,0.00,VWS V14.01,2013-03-18 06:00:00,
2013-03-17 23:10:00,53.8,49.1,30.05,WSW,243,2.7,3.2,84,0.00,,CLR,0.00,VWS V14.01,2013-03-18 06:10:00,
2013-03-17 23:20:00,53.6,48.9,30.05,West,266,3.8,4.3,84,0.00,,CLR,0.00,VWS V14.01,2013-03-18 06:20:00,
2013-03-17 23:30:00,53.4,49.0,30.02,West,267,3.8,4.8,85,0.00,,CLR,0.00,VWS V14.01,2013-03-18 06:30:00,
2013-03-17 23:40:00,53.1,49.0,30.05,West,275,3.2,4.8,86,0.00,,CLR,0.00,VWS V14.01,2013-03-18 06:40:00,
2013-03-17 23:50:00,52.9,48.8,30.05,WSW,254,0.0,4.8,86,0.00,,,0.00,VWS V14.01,2013-03-18 06:50:00,